Latest Weather Observations for Omeo

IDV60801

Issued at 12:05 pm EDT Thursday 27 November 2014 (issued every 30 minutes, with the page automatically refreshed every 10 minutes)

About weather observations | Map of weather stations | Latest weather observations for VIC | Other Formats
Station Details ID: 083090 Name: OMEO Lat: -37.10 Lon: 147.60 Height: 689.8 m
Data from the previous 72 hours. | See also: Recent months at Omeo
Date/Time
EDT
Temp
°C
App
Temp
°C
Dew
Point
Rel
Hum
%
Delta-T
°C
Wind Press
QNH
hPa
Press
MSL
hPa
Rain
since 9 am
mm
Dir
 
Spd
km/h
Gust
km/h
Spd
kts
Gust
kts
27/12:00pm 17.9 14.0 7.3 50 5.5 SE 17 26 9 14 1023.6 1022.0 0.0
27/11:30am 17.2 13.8 7.8 54 4.9 ESE 15 22 8 12 1023.9 1022.3 0.0
27/11:00am 16.9 14.4 8.1 56 4.6 SE 11 19 6 10 1023.9 1022.3 0.0
27/10:30am 14.4 12.1 5.7 56 4.3 ESE 7 13 4 7 1024.3 1022.7 0.0
27/10:00am 14.1 11.6 6.5 60 3.8 SE 9 15 5 8 1024.5 1022.9 0.0
27/09:30am 12.5 10.0 6.5 67 3.0 S 9 15 5 8 1024.7 1023.1 0.0
27/09:00am 12.7 9.8 6.5 66 3.1 ESE 11 17 6 9 1024.8 1023.2 0.0
27/08:30am 10.0 7.3 5.8 75 2.0 S 9 13 5 7 1024.8 1023.2 0.0
27/08:00am 10.3 7.8 6.5 77 1.8 SSE 9 17 5 9 1024.4 1022.8 0.0
27/07:30am 9.5 7.0 6.4 81 1.5 SSE 9 19 5 10 1023.9 1022.3 0.0
27/07:00am 8.9 6.1 7.0 88 0.9 SSE 11 19 6 10 1023.8 1022.2 0.0
27/06:30am 8.0 5.1 6.6 91 0.7 SSE 11 15 6 8 1023.5 1021.9 0.0
27/06:00am 7.6 4.7 6.4 92 0.6 SSE 11 15 6 8 1023.3 1021.7 0.0
27/05:30am 7.7 4.4 6.6 93 0.5 SE 13 19 7 10 1023.1 1021.5 0.0
27/05:00am 7.8 5.4 6.9 94 0.4 SSE 9 13 5 7 1022.8 1021.1 0.0
27/04:30am 7.7 4.1 6.8 94 0.4 SSE 15 22 8 12 1022.4 1020.8 0.0
27/04:00am 8.2 5.9 7.3 94 0.4 SSE 9 17 5 9 1022.4 1020.8 0.0
27/03:30am 8.1 6.1 7.0 93 0.5 SSE 7 15 4 8 1022.3 1020.7 0.0
27/03:00am 8.2 6.2 7.0 92 0.6 S 7 13 4 7 1022.2 1020.6 0.0
27/02:30am 9.1 7.2 7.7 91 0.7 SE 7 11 4 6 1022.4 1020.8 0.0
27/02:00am 9.7 7.5 8.0 89 0.8 SE 9 15 5 8 1022.4 1020.8 0.0
27/01:30am 10.3 7.9 8.6 89 0.9 SE 11 19 6 10 1022.5 1020.9 0.0
27/01:00am 10.5 7.7 8.6 88 1.0 SE 13 20 7 11 1022.8 1021.1 0.0
27/12:30am 10.7 8.4 9.0 89 0.9 SSE 11 19 6 10 1022.9 1021.3 0.0
27/12:00am 10.8 8.1 8.9 88 1.0 SE 13 19 7 10 1022.9 1021.3 0.0
 
Date/Time
EDT
Temp
°C
App
Temp
°C
Dew
Point
Rel
Hum
%
Delta-T
°C
Wind Press
QNH
hPa
Press
MSL
hPa
Rain
since 9 am
mm
Dir
 
Spd
km/h
Gust
km/h
Spd
kts
Gust
kts
26/11:30pm 11.3 8.8 9.6 89 0.9 SE 13 20 7 11 1023.0 1021.4 0.0
26/11:00pm 11.5 8.3 9.8 89 0.9 SE 17 22 9 12 1022.9 1021.3 0.0
26/10:30pm 11.5 9.4 9.8 89 0.9 SSE 11 17 6 9 1023.0 1021.4 0.0
26/10:00pm 11.9 9.4 9.8 87 1.1 SE 13 19 7 10 1022.8 1021.1 0.0
26/09:30pm 12.1 9.6 9.7 85 1.3 SE 13 20 7 11 1022.5 1020.9 0.0
26/09:00pm 12.4 9.8 9.4 82 1.6 SE 13 22 7 12 1022.1 1020.5 0.0
26/08:30pm 13.2 11.3 8.9 75 2.2 SSE 9 13 5 7 1021.8 1020.2 0.0
26/08:00pm 13.4 10.7 8.9 74 2.3 SE 13 20 7 11 1021.6 1020.0 0.0
26/07:30pm 13.8 11.6 9.3 74 2.4 SE 11 19 6 10 1021.3 1019.6 0.0
26/07:00pm 13.9 10.5 9.3 74 2.4 SE 17 26 9 14 1021.0 1019.4 0.0
26/06:30pm 14.0 10.8 9.8 76 2.2 SE 17 24 9 13 1020.4 1018.8 0.0
26/06:00pm 14.6 10.9 9.4 71 2.8 SE 19 30 10 16 1020.2 1018.5 0.0
26/05:30pm 15.5 11.2 9.2 66 3.4 SE 22 33 12 18 1020.0 1018.3 0.0
26/05:00pm 16.9 13.0 9.6 62 3.9 ESE 20 32 11 17 1019.7 1018.0 0.0
26/04:30pm 18.4 14.7 10.0 58 4.6 SE 20 33 11 18 1019.4 1017.8 0.0
26/04:00pm 17.6 13.6 9.0 57 4.6 SE 20 33 11 18 1019.0 1017.4 0.0
26/03:30pm 18.5 14.7 9.8 57 4.8 SE 20 32 11 17 1018.8 1017.1 0.0
26/03:00pm 21.3 17.6 10.2 49 6.2 SE 20 33 11 18 1018.7 1017.0 0.0
26/02:30pm 19.6 15.7 8.6 49 5.9 ESE 19 28 10 15 1018.7 1017.0 0.0
26/02:00pm 21.2 18.5 9.1 46 6.6 SSE 13 26 7 14 1018.8 1017.1 0.0
26/01:30pm 21.8 19.0 8.7 43 7.2 ESE 13 24 7 13 1018.7 1017.0 0.0
26/01:00pm 20.3 18.5 7.0 42 7.0 E 6 9 3 5 1019.0 1017.4 0.0
26/12:30pm 20.0 17.5 6.4 41 7.1 NE 9 13 5 7 1019.0 1017.4 0.0
26/12:00pm 20.2 17.9 5.8 39 7.4 ESE 7 15 4 8 1019.1 1017.5 0.0
26/11:30am 19.6 17.1 6.7 43 6.7 NW 9 19 5 10 1019.2 1017.6 0.0
26/11:00am 18.6 15.9 7.4 48 5.9 NNE 11 19 6 10 1019.2 1017.6 0.0
26/10:30am 16.4 12.5 7.3 55 4.7 N 17 26 9 14 1019.3 1017.7 0.0
26/10:00am 15.0 11.6 7.5 61 3.8 N 15 24 8 13 1019.8 1018.1 0.0
26/09:30am 12.9 9.2 8.0 72 2.5 N 17 24 9 13 1020.0 1018.3 0.0
26/09:00am 11.6 7.3 6.9 73 2.3 N 19 26 10 14 1020.2 1018.5 0.2
26/08:30am 10.2 7.1 7.3 82 1.4 N 13 20 7 11 1020.4 1018.8 0.2
26/08:00am 8.5 5.7 7.1 91 0.7 N 11 17 6 9 1020.2 1018.5 0.2
26/07:30am 6.8 4.6 6.2 96 0.3 NNW 7 11 4 6 1020.3 1018.7 0.2
26/07:00am 5.5 3.0 4.9 96 0.3 WNW 7 9 4 5 1020.1 1018.4 0.2
26/06:30am 5.1 2.7 4.5 96 0.3 N 6 11 3 6 1019.9 1018.2 0.2
26/06:00am 4.7 3.0 4.1 96 0.3 W 2 7 1 4 1019.9 1018.2 0.2
26/05:30am 4.8 3.5 4.2 96 0.3 CALM 0 0 0 0 1019.7 1018.0 0.2
26/05:00am 5.3 4.1 4.7 96 0.3 CALM 0 0 0 0 1019.5 1017.9 0.2
26/04:30am 4.8 3.5 4.1 95 0.3 CALM 0 0 0 0 1019.3 1017.7 0.2
26/04:00am 4.6 3.3 3.9 95 0.3 CALM 0 0 0 0 1019.4 1017.8 0.2
26/03:30am 4.6 2.5 3.7 94 0.4 SSE 4 6 2 3 1019.4 1017.8 0.2
26/03:00am 5.2 3.9 4.3 94 0.4 CALM 0 0 0 0 1019.5 1017.9 0.2
26/02:30am 5.9 4.8 5.0 94 0.4 CALM 0 4 0 2 1020.0 1018.3 0.2
26/02:00am 6.1 4.6 5.1 93 0.5 S 2 9 1 5 1020.3 1018.7 0.2
26/01:30am 6.1 3.6 4.9 92 0.5 S 7 9 4 5 1020.4 1018.8 0.2
26/01:00am 6.4 5.3 5.0 91 0.6 CALM 0 0 0 0 1020.5 1018.9 0.2
26/12:30am 7.1 5.7 5.6 90 0.7 S 2 7 1 4 1020.7 1019.1 0.2
26/12:00am 7.6 6.6 5.6 87 0.9 CALM 0 0 0 0 1021.0 1019.4 0.2
 
Date/Time
EDT
Temp
°C
App
Temp
°C
Dew
Point
Rel
Hum
%
Delta-T
°C
Wind Press
QNH
hPa
Press
MSL
hPa
Rain
since 9 am
mm
Dir
 
Spd
km/h
Gust
km/h
Spd
kts
Gust
kts
25/11:30pm 8.7 7.4 6.0 83 1.3 SSE 2 9 1 5 1021.2 1019.5 0.2
25/11:00pm 9.8 7.6 6.3 79 1.7 SSW 7 9 4 5 1021.2 1019.5 0.2
25/10:30pm 10.7 8.6 6.6 76 2.0 SSW 7 15 4 8 1021.2 1019.5 0.2
25/10:00pm 11.1 9.5 6.5 73 2.2 SW 4 9 2 5 1020.8 1019.2 0.2
25/09:30pm 11.5 10.0 6.6 72 2.4 SSW 4 13 2 7 1020.4 1018.8 0.2
25/09:00pm 11.8 9.2 6.1 68 2.8 SE 9 15 5 8 1019.9 1018.2 0.2
25/08:30pm 13.0 9.7 6.4 64 3.3 SSE 13 20 7 11 1019.4 1017.8 0.2
25/08:00pm 14.3 10.2 6.2 58 4.0 SSE 17 28 9 15 1018.9 1017.2 0.2
25/07:30pm 16.3 12.7 6.7 53 4.9 SE 15 22 8 12 1018.4 1016.7 0.2
25/07:00pm 17.8 14.3 7.0 49 5.6 SE 15 24 8 13 1017.8 1016.2 0.2
25/06:30pm 17.5 14.0 7.3 51 5.3 SE 15 28 8 15 1017.3 1015.6 0.2
25/06:00pm 18.6 16.0 6.1 44 6.4 ESE 9 17 5 9 1017.1 1015.4 0.2
25/05:30pm 19.1 16.0 3.7 36 7.5 N 9 13 5 7 1016.9 1015.2 0.2
25/05:00pm 21.2 18.0 5.1 35 8.2 SSE 11 19 6 10 1016.7 1015.0 0.2
25/04:30pm 22.0 18.6 5.8 35 8.4 SSE 13 20 7 11 1016.4 1014.8 0.2
25/04:00pm 21.1 17.9 5.1 35 8.2 S 11 22 6 12 1016.3 1014.6 0.2
25/03:30pm 20.8 18.2 4.4 34 8.2 NE 7 17 4 9 1016.4 1014.8 0.2
25/03:00pm 20.2 17.4 5.1 37 7.7 SSE 9 20 5 11 1016.4 1014.8 0.2
25/02:30pm 19.7 16.4 2.6 32 8.2 SSW 9 17 5 9 1016.6 1014.9 0.2
25/02:00pm 18.7 15.0 2.1 33 7.8 W 11 22 6 12 1016.8 1015.1 0.2
25/01:30pm 18.4 15.3 3.5 37 7.2 SSW 9 19 5 10 1016.9 1015.2 0.2
25/01:00pm 18.1 13.1 1.6 33 7.7 W 17 24 9 13 1016.9 1015.2 0.2
25/12:30pm 17.9 13.4 2.2 35 7.4 W 15 28 8 15 1017.1 1015.4 0.2
25/12:00pm 17.0 12.7 1.0 34 7.3 W 13 26 7 14 1017.2 1015.5 0.2
25/11:30am 17.0 12.7 1.0 34 7.3 W 13 26 7 14 1017.0 1015.3 0.2
25/11:00am 16.1 10.7 1.4 37 6.7 WNW 19 26 10 14 1017.0 1015.3 0.2
25/10:30am 14.9 9.2 -0.8 34 6.8 NW 19 26 10 14 1016.9 1015.2 0.0
25/10:00am 14.5 10.5 0.7 39 6.1 WSW 11 20 6 11 1016.6 1014.9 0.0
25/09:30am 13.7 9.8 1.4 43 5.5 WNW 11 19 6 10 1016.4 1014.8 0.0
25/09:00am 12.9 9.6 2.7 50 4.7 WNW 9 22 5 12 1016.2 1014.5 15.6
25/08:30am 11.9 8.3 2.9 54 4.1 NNW 11 22 6 12 1015.8 1014.1 15.6
25/08:00am 10.7 6.6 2.0 55 3.8 NW 13 20 7 11 1015.6 1013.9 15.6
25/07:30am 9.4 5.5 1.1 56 3.6 NNW 11 17 6 9 1015.4 1013.7 15.6
25/07:00am 8.8 5.1 2.2 63 2.9 WNW 11 17 6 9 1014.8 1013.1 15.6
25/06:30am 6.7 5.3 3.7 81 1.3 CALM 0 2 0 1 1014.7 1013.0 15.6
25/06:00am 7.9 4.8 3.8 75 1.8 W 9 19 5 10 1014.2 1012.5 15.6
25/05:30am 6.4 4.2 5.4 93 0.5 S 6 7 3 4 1013.5 1011.7 15.6
25/05:00am 7.4 5.3 6.7 95 0.3 S 7 11 4 6 1012.8 1011.1 15.6
25/04:30am 7.9 5.9 7.1 95 0.4 S 7 13 4 7 1012.3 1010.5 15.6
25/04:00am 8.6 6.8 7.8 95 0.4 SSE 7 11 4 6 1011.9 1010.1 15.6
25/03:30am 9.0 6.1 8.2 95 0.4 SSE 13 20 7 11 1011.7 1010.0 15.6
25/03:00am 9.1 6.2 8.3 95 0.4 SE 13 20 7 11 1011.4 1009.7 15.6
25/02:30am 9.3 6.5 8.5 95 0.4 SE 13 20 7 11 1011.3 1009.5 15.6
25/02:00am 9.6 6.5 8.8 95 0.4 SE 15 24 8 13 1011.2 1009.4 15.6
25/01:30am 10.8 8.0 10.0 95 0.4 SE 15 24 8 13 1010.8 1009.0 15.6
25/01:00am 11.3 9.0 10.5 95 0.4 SE 13 19 7 10 1011.1 1009.3 15.6
25/12:30am 11.5 9.7 10.7 95 0.4 SSE 11 17 6 9 1011.2 1009.4 15.6
25/12:00am 11.6 9.8 10.8 95 0.4 SSE 11 19 6 10 1011.4 1009.7 15.6
 
Date/Time
EDT
Temp
°C
App
Temp
°C
Dew
Point
Rel
Hum
%
Delta-T
°C
Wind Press
QNH
hPa
Press
MSL
hPa
Rain
since 9 am
mm
Dir
 
Spd
km/h
Gust
km/h
Spd
kts
Gust
kts
24/11:30pm 11.9 9.0 11.1 95 0.4 SE 17 24 9 13 1011.1 1009.3 15.0
24/11:00pm 13.0 10.0 12.1 94 0.5 SE 19 26 10 14 1010.7 1008.9 14.8
24/10:30pm 14.9 15.1 14.3 96 0.4 SSW 6 7 3 4 1010.5 1008.7 14.8
24/10:00pm 14.8 15.8 14.3 97 0.3 NNW 2 6 1 3 1010.1 1008.4 14.8
24/09:30pm 14.7 14.3 14.2 97 0.3 NNW 9 13 5 7 1010.6 1008.8 14.8
24/09:00pm 14.6 12.7 14.1 97 0.3 NNW 17 24 9 13 1009.8 1008.0 13.0
24/08:30pm 14.5 12.5 13.9 96 0.3 N 17 26 9 14 1009.0 1007.2 10.4
24/08:00pm 14.7 12.1 13.7 94 0.6 N 20 28 11 15 1008.9 1007.1 7.2
24/07:30pm 15.2 12.6 13.7 91 0.9 NNW 20 32 11 17 1008.3 1006.5 5.8
24/07:00pm 15.2 12.9 13.1 87 1.2 N 17 28 9 15 1007.4 1005.5 5.4
24/06:30pm 16.1 14.5 12.8 81 1.9 N 13 20 7 11 1008.9 1007.1 4.0
24/06:00pm 17.3 14.4 12.8 75 2.6 NNW 20 30 11 16 1009.1 1007.3 2.4
24/05:30pm 19.3 16.2 14.6 74 2.8 N 24 35 13 19 1008.6 1006.8 0.0
24/05:00pm 20.6 17.4 14.3 67 3.8 N 24 37 13 20 1008.0 1006.2 0.0
24/04:30pm 20.9 18.3 13.8 64 4.2 N 20 28 11 15 1008.4 1006.6 0.0
24/04:00pm 21.1 18.6 14.0 64 4.3 N 20 28 11 15 1009.1 1007.3 0.0
24/03:30pm 20.6 17.1 13.3 63 4.3 N 24 35 13 19 1009.9 1008.1 0.0
24/03:00pm 20.7 17.7 13.6 64 4.2 NNW 22 32 12 17 1010.2 1008.5 0.0
24/02:30pm 20.5 18.2 14.2 67 3.8 N 19 28 10 15 1010.6 1008.8 0.0
24/02:00pm 20.5 19.1 14.4 68 3.7 N 15 24 8 13 1010.5 1008.7 0.0
24/01:30pm 21.0 19.4 13.9 64 4.2 N 15 24 8 13 1010.6 1008.8 0.0
24/01:00pm 21.0 18.2 14.2 65 4.1 NNW 22 33 12 18 1010.2 1008.5 0.0
24/12:30pm 21.1 17.9 14.3 65 4.1 NW 24 35 13 19 1011.0 1009.2 0.0

Other Formats:

Comma delimited format used in spreadsheet applications
http://www.bom.gov.au/fwo/IDV60801/IDV60801.94908.axf

JavaScript Object Notation format (JSON) in row-major order
http://www.bom.gov.au/fwo/IDV60801/IDV60801.94908.json